Time,TemperatureF,DewpointF,PressureIn,WindDirection,WindDirectionDegrees,WindSpeedMPH,WindSpeedGustMPH,Humidity,HourlyPrecipIn,Conditions,Clouds,dailyrainin,SoftwareType,DateUTC
2013-04-10 00:02:00,74.0,68.0,29.74,SE,135,3.0,12.0,81,0.00,,,0.00,,2013-04-10 05:02:00,
2013-04-10 00:13:00,74.0,68.0,29.74,SE,135,3.0,12.0,81,0.00,,,0.00,,2013-04-10 05:13:00,
2013-04-10 00:22:00,74.0,68.0,29.72,SE,141,4.0,12.0,81,0.00,,,0.00,,2013-04-10 05:22:00,
2013-04-10 00:33:00,73.0,67.0,29.72,SE,126,2.0,10.0,82,0.00,,,0.00,,2013-04-10 05:33:00,
2013-04-10 00:42:00,73.0,67.0,29.72,SE,126,2.0,10.0,82,0.00,,,0.00,,2013-04-10 05:42:00,
2013-04-10 00:52:00,73.0,67.0,29.72,SE,139,3.0,10.0,82,0.00,,,0.00,,2013-04-10 05:52:00,
2013-04-10 01:03:00,73.0,68.0,29.75,SE,143,2.0,7.0,83,0.00,,,0.00,,2013-04-10 06:03:00,
2013-04-10 01:12:00,72.0,67.0,29.75,SE,130,2.0,7.0,84,0.00,,,0.00,,2013-04-10 06:12:00,
2013-04-10 01:22:00,72.0,67.0,29.75,SE,130,2.0,7.0,84,0.00,,,0.00,,2013-04-10 06:22:00,
2013-04-10 01:32:00,72.0,67.0,29.75,SE,135,2.0,7.0,84,0.00,,,0.00,,2013-04-10 06:32:00,
2013-04-10 01:42:00,72.0,67.0,29.75,SE,135,2.0,7.0,84,0.00,,,0.00,,2013-04-10 06:42:00,
2013-04-10 01:52:00,72.0,67.0,29.75,SE,134,0.0,2.0,84,0.00,,,0.00,,2013-04-10 06:52:00,
2013-04-10 02:02:00,71.0,66.0,29.75,SE,140,2.0,6.0,85,0.00,,,0.00,,2013-04-10 07:02:00,
2013-04-10 02:12:00,71.0,66.0,29.75,SE,140,2.0,6.0,85,0.00,,,0.00,,2013-04-10 07:12:00,
2013-04-10 02:22:00,71.0,66.0,29.75,SE,146,1.0,8.0,85,0.00,,,0.00,,2013-04-10 07:22:00,
2013-04-10 02:32:00,71.0,67.0,29.75,SE,128,1.0,10.0,86,0.00,,,0.00,,2013-04-10 07:32:00,
2013-04-10 02:42:00,71.0,67.0,29.75,SE,128,1.0,10.0,86,0.00,,,0.00,,2013-04-10 07:42:00,
2013-04-10 02:52:00,71.0,67.0,29.75,SE,124,1.0,3.0,86,0.00,,,0.00,,2013-04-10 07:52:00,
2013-04-10 03:02:00,71.0,67.0,29.75,SE,126,0.0,3.0,87,0.00,,,0.00,,2013-04-10 08:02:00,
2013-04-10 03:12:00,71.0,67.0,29.75,SE,126,0.0,3.0,87,0.00,,,0.00,,2013-04-10 08:12:00,
2013-04-10 03:22:00,71.0,67.0,29.76,SE,126,0.0,1.0,87,0.00,,,0.00,,2013-04-10 08:22:00,
2013-04-10 03:32:00,64.0,52.0,29.78,West,275,7.0,20.0,65,0.00,,,0.00,,2013-04-10 08:32:00,
2013-04-10 03:42:00,64.0,52.0,29.78,West,275,7.0,20.0,65,0.00,,,0.00,,2013-04-10 08:42:00,
2013-04-10 03:52:00,58.0,49.0,29.78,WNW,299,7.0,15.0,73,0.00,,,0.00,,2013-04-10 08:52:00,
2013-04-10 04:02:00,52.0,47.0,29.79,West,281,6.0,15.0,83,0.00,,,0.00,,2013-04-10 09:02:00,
2013-04-10 04:12:00,50.0,46.0,29.79,West,271,6.0,13.0,85,0.01,,,0.01,,2013-04-10 09:12:00,
2013-04-10 04:22:00,50.0,46.0,29.79,West,271,6.0,13.0,85,0.01,,,0.01,,2013-04-10 09:22:00,
2013-04-10 04:32:00,48.0,45.0,29.79,West,273,6.0,14.0,88,0.02,,,0.02,,2013-04-10 09:32:00,
2013-04-10 04:43:00,48.0,45.0,29.79,West,273,6.0,14.0,88,0.02,,,0.02,,2013-04-10 09:43:00,
2013-04-10 04:52:00,48.0,45.0,29.79,West,279,6.0,12.0,88,0.02,,,0.02,,2013-04-10 09:52:00,
2013-04-10 05:03:00,46.0,43.0,29.79,NW,326,8.0,15.0,89,0.02,,,0.02,,2013-04-10 10:03:00,
2013-04-10 05:13:00,46.0,43.0,29.79,NW,306,7.0,15.0,88,0.01,,,0.02,,2013-04-10 10:13:00,
2013-04-10 05:23:00,46.0,43.0,29.79,NW,306,7.0,15.0,88,0.01,,,0.02,,2013-04-10 10:23:00,
2013-04-10 05:33:00,45.0,42.0,29.79,West,265,6.0,15.0,89,0.00,,,0.02,,2013-04-10 10:33:00,
2013-04-10 05:42:00,45.0,42.0,29.79,West,265,6.0,15.0,89,0.00,,,0.02,,2013-04-10 10:42:00,
2013-04-10 05:52:00,45.0,42.0,29.79,West,278,7.0,15.0,88,0.00,,,0.02,,2013-04-10 10:52:00,
2013-04-10 06:02:00,44.0,41.0,29.79,West,264,5.0,15.0,88,0.00,,,0.02,,2013-04-10 11:02:00,
2013-04-10 06:12:00,44.0,41.0,29.79,West,264,5.0,15.0,88,0.00,,,0.02,,2013-04-10 11:12:00,
2013-04-10 06:22:00,44.0,41.0,29.79,West,278,6.0,14.0,89,0.00,,,0.02,,2013-04-10 11:22:00,
2013-04-10 06:32:00,44.0,41.0,29.88,WNW,288,7.0,17.0,89,0.00,,,0.02,,2013-04-10 11:32:00,
2013-04-10 06:42:00,44.0,41.0,29.88,WNW,288,7.0,17.0,89,0.00,,,0.02,,2013-04-10 11:42:00,
2013-04-10 06:52:00,44.0,41.0,29.88,WNW,295,6.0,16.0,90,0.00,,,0.02,,2013-04-10 11:52:00,
2013-04-10 07:03:00,44.0,41.0,29.88,NW,316,7.0,14.0,90,0.00,,,0.02,,2013-04-10 12:03:00,
2013-04-10 07:12:00,44.0,41.0,29.88,NW,316,7.0,14.0,90,0.00,,,0.02,,2013-04-10 12:12:00,
2013-04-10 07:22:00,44.0,41.0,29.88,WNW,296,6.0,14.0,90,0.00,,,0.02,,2013-04-10 12:22:00,
2013-04-10 07:33:00,43.0,40.0,29.88,WNW,300,6.0,13.0,90,0.04,,,0.06,,2013-04-10 12:33:00,
2013-04-10 07:42:00,43.0,40.0,29.88,WNW,300,6.0,13.0,90,0.04,,,0.06,,2013-04-10 12:42:00,
2013-04-10 07:52:00,43.0,41.0,29.88,West,262,6.0,13.0,91,0.09,,,0.11,,2013-04-10 12:52:00,
2013-04-10 08:02:00,43.0,41.0,29.90,WNW,303,5.0,16.0,91,0.10,,,0.12,,2013-04-10 13:02:00,
2013-04-10 08:12:00,43.0,41.0,29.90,WNW,303,5.0,16.0,91,0.10,,,0.12,,2013-04-10 13:12:00,
2013-04-10 08:23:00,43.0,41.0,29.90,NW,317,6.0,13.0,91,0.10,,,0.12,,2013-04-10 13:23:00,
2013-04-10 08:32:00,43.0,41.0,29.91,West,278,5.0,16.0,91,0.06,,,0.12,,2013-04-10 13:32:00,
2013-04-10 08:43:00,43.0,41.0,29.91,West,278,5.0,16.0,91,0.06,,,0.12,,2013-04-10 13:43:00,
2013-04-10 08:52:00,42.0,40.0,29.91,NW,307,9.0,17.0,91,0.01,,,0.12,,2013-04-10 13:52:00,
2013-04-10 09:02:00,42.0,40.0,29.92,WNW,297,6.0,13.0,91,0.00,,,0.12,,2013-04-10 14:02:00,
2013-04-10 09:12:00,42.0,40.0,29.92,WNW,297,6.0,13.0,91,0.00,,,0.12,,2013-04-10 14:12:00,
2013-04-10 09:22:00,42.0,40.0,29.92,NW,304,5.0,13.0,91,0.00,,,0.12,,2013-04-10 14:22:00,
2013-04-10 09:32:00,41.0,39.0,29.91,NNW,346,7.0,15.0,91,0.00,,,0.12,,2013-04-10 14:32:00,
2013-04-10 09:42:00,41.0,39.0,29.91,NNW,346,7.0,15.0,91,0.00,,,0.12,,2013-04-10 14:42:00,
2013-04-10 09:52:00,41.0,39.0,29.91,NNW,330,6.0,16.0,91,0.00,,,0.12,,2013-04-10 14:52:00,
2013-04-10 10:02:00,41.0,39.0,29.92,NW,316,5.0,16.0,91,0.01,,,0.13,,2013-04-10 15:02:00,
2013-04-10 10:12:00,41.0,39.0,29.92,NW,316,5.0,16.0,91,0.01,,,0.13,,2013-04-10 15:12:00,
2013-04-10 10:22:00,41.0,39.0,29.92,NNW,327,5.0,13.0,91,0.02,,,0.14,,2013-04-10 15:22:00,
2013-04-10 10:32:00,41.0,39.0,29.92,WNW,293,3.0,14.0,91,0.02,,,0.14,,2013-04-10 15:32:00,
2013-04-10 10:42:00,41.0,39.0,29.92,WNW,293,3.0,14.0,91,0.02,,,0.14,,2013-04-10 15:42:00,
2013-04-10 10:52:00,41.0,39.0,29.95,West,269,5.0,12.0,91,0.02,,,0.14,,2013-04-10 15:52:00,
2013-04-10 11:03:00,41.0,39.0,29.97,West,266,7.0,15.0,91,0.03,,,0.16,,2013-04-10 16:03:00,
2013-04-10 11:13:00,41.0,39.0,29.97,West,266,7.0,15.0,91,0.03,,,0.16,,2013-04-10 16:13:00,
2013-04-10 11:23:00,40.0,38.0,29.97,WNW,284,7.0,16.0,91,0.02,,,0.16,,2013-04-10 16:23:00,
2013-04-10 11:33:00,40.0,38.0,29.98,NW,314,6.0,14.0,92,0.03,,,0.17,,2013-04-10 16:33:00,
2013-04-10 11:43:00,40.0,38.0,29.98,NW,314,6.0,14.0,92,0.03,,,0.17,,2013-04-10 16:43:00,
2013-04-10 11:52:00,40.0,38.0,29.98,WNW,289,7.0,15.0,92,0.04,,,0.18,,2013-04-10 16:52:00,
2013-04-10 12:02:00,39.0,37.0,29.97,West,280,8.0,16.0,92,0.09,,,0.25,,2013-04-10 17:02:00,
2013-04-10 12:12:00,39.0,37.0,29.97,WSW,253,7.0,15.0,92,0.20,,,0.36,,2013-04-10 17:12:00,
2013-04-10 12:22:00,39.0,37.0,29.97,WSW,253,7.0,15.0,92,0.20,,,0.36,,2013-04-10 17:22:00,
2013-04-10 12:33:00,39.0,37.0,29.99,WNW,300,5.0,15.0,92,0.31,,,0.48,,2013-04-10 17:33:00,
2013-04-10 12:42:00,39.0,37.0,29.99,WNW,300,5.0,15.0,92,0.31,,,0.48,,2013-04-10 17:42:00,
2013-04-10 12:52:00,39.0,37.0,29.99,NNW,328,6.0,16.0,92,0.32,,,0.50,,2013-04-10 17:52:00,
2013-04-10 13:02:00,39.0,37.0,29.96,NW,304,7.0,15.0,92,0.32,,,0.57,,2013-04-10 18:02:00,
2013-04-10 13:12:00,39.0,37.0,29.96,NW,304,7.0,15.0,92,0.32,,,0.57,,2013-04-10 18:12:00,
2013-04-10 13:22:00,39.0,37.0,29.97,WNW,282,7.0,20.0,92,0.21,,,0.57,,2013-04-10 18:22:00,
2013-04-10 13:33:00,39.0,37.0,29.97,WNW,285,9.0,18.0,92,0.10,,,0.58,,2013-04-10 18:33:00,
2013-04-10 13:42:00,39.0,37.0,29.97,WNW,285,9.0,18.0,92,0.10,,,0.58,,2013-04-10 18:42:00,
2013-04-10 13:52:00,39.0,37.0,29.97,West,259,8.0,15.0,92,0.09,,,0.59,,2013-04-10 18:52:00,
2013-04-10 14:03:00,39.0,37.0,29.96,WNW,286,6.0,17.0,92,0.02,,,0.59,,2013-04-10 19:03:00,
2013-04-10 14:12:00,39.0,37.0,29.96,WNW,286,6.0,17.0,92,0.02,,,0.59,,2013-04-10 19:12:00,
2013-04-10 14:22:00,39.0,37.0,29.96,NW,322,5.0,14.0,92,0.02,,,0.59,,2013-04-10 19:22:00,
2013-04-10 14:33:00,39.0,37.0,29.96,NW,307,6.0,16.0,92,0.02,,,0.60,,2013-04-10 19:33:00,
2013-04-10 14:42:00,39.0,37.0,29.96,NW,307,6.0,16.0,92,0.02,,,0.60,,2013-04-10 19:42:00,
2013-04-10 14:52:00,39.0,37.0,29.96,West,275,6.0,14.0,91,0.02,,,0.61,,2013-04-10 19:52:00,
2013-04-10 15:02:00,39.0,37.0,29.95,NW,306,8.0,16.0,92,0.02,,,0.61,,2013-04-10 20:02:00,
2013-04-10 15:12:00,39.0,37.0,29.95,West,275,7.0,18.0,92,0.02,,,0.61,,2013-04-10 20:12:00,
2013-04-10 15:23:00,39.0,37.0,29.95,West,275,7.0,18.0,92,0.02,,,0.61,,2013-04-10 20:23:00,
2013-04-10 15:33:00,39.0,37.0,29.94,WSW,251,10.0,20.0,91,0.01,,,0.61,,2013-04-10 20:33:00,
2013-04-10 15:42:00,40.0,38.0,29.94,WNW,300,7.0,15.0,91,0.00,,,0.61,,2013-04-10 20:42:00,
2013-04-10 15:52:00,40.0,38.0,29.94,WNW,300,7.0,15.0,91,0.00,,,0.61,,2013-04-10 20:52:00,
2013-04-10 16:02:00,40.0,37.0,29.94,WNW,292,5.0,18.0,90,0.00,,,0.61,,2013-04-10 21:02:00,
2013-04-10 16:12:00,40.0,37.0,29.94,WNW,292,5.0,18.0,90,0.00,,,0.61,,2013-04-10 21:12:00,
2013-04-10 16:22:00,40.0,37.0,29.95,West,277,7.0,16.0,89,0.00,,,0.61,,2013-04-10 21:22:00,
2013-04-10 16:33:00,40.0,36.0,29.94,WNW,298,7.0,17.0,87,0.00,,,0.61,,2013-04-10 21:33:00,
2013-04-10 16:43:00,40.0,36.0,29.94,WNW,298,7.0,17.0,87,0.00,,,0.61,,2013-04-10 21:43:00,
2013-04-10 16:52:00,41.0,37.0,29.95,NW,314,7.0,15.0,87,0.00,,,0.61,,2013-04-10 21:52:00,
2013-04-10 17:03:00,41.0,37.0,29.95,WNW,303,5.0,13.0,86,0.00,,,0.61,,2013-04-10 22:03:00,
2013-04-10 17:12:00,41.0,37.0,29.95,WNW,303,5.0,13.0,86,0.00,,,0.61,,2013-04-10 22:12:00,
2013-04-10 17:22:00,42.0,38.0,29.94,NW,322,7.0,16.0,85,0.00,,,0.61,,2013-04-10 22:22:00,
2013-04-10 17:33:00,42.0,37.0,29.93,WNW,293,6.0,16.0,83,0.00,,,0.61,,2013-04-10 22:33:00,
2013-04-10 17:42:00,42.0,37.0,29.93,WNW,293,6.0,16.0,83,0.00,,,0.61,,2013-04-10 22:42:00,
2013-04-10 17:52:00,43.0,38.0,29.93,NW,314,7.0,13.0,83,0.00,,,0.61,,2013-04-10 22:52:00,
2013-04-10 18:02:00,43.0,38.0,29.94,WNW,300,7.0,13.0,81,0.00,,,0.61,,2013-04-10 23:02:00,
2013-04-10 18:12:00,43.0,38.0,29.94,WNW,300,7.0,13.0,81,0.00,,,0.61,,2013-04-10 23:12:00,
2013-04-10 18:22:00,44.0,39.0,29.94,WNW,294,6.0,17.0,81,0.00,,,0.61,,2013-04-10 23:22:00,
2013-04-10 18:33:00,44.0,39.0,29.94,NW,310,5.0,12.0,81,0.00,,,0.61,,2013-04-10 23:33:00,
2013-04-10 18:42:00,44.0,39.0,29.94,NW,310,5.0,12.0,81,0.00,,,0.61,,2013-04-10 23:42:00,
2013-04-10 18:52:00,44.0,39.0,29.94,WNW,288,6.0,12.0,81,0.00,,,0.61,,2013-04-10 23:52:00,
2013-04-10 19:02:00,44.0,39.0,29.94,WNW,288,6.0,12.0,81,0.00,,,0.61,,2013-04-11 00:02:00,
2013-04-10 19:12:00,44.0,39.0,29.94,WNW,288,6.0,12.0,81,0.00,,,0.61,,2013-04-11 00:12:00,
2013-04-10 19:22:00,44.0,39.0,29.94,WNW,288,6.0,12.0,81,0.00,,,0.61,,2013-04-11 00:22:00,
2013-04-10 21:32:00,44.0,39.0,29.94,WNW,288,6.0,12.0,81,0.00,,,0.61,,2013-04-11 02:32:00,
2013-04-10 21:42:00,44.0,39.0,29.94,WNW,288,6.0,12.0,81,0.00,,,0.61,,2013-04-11 02:42:00,
2013-04-10 21:53:00,44.0,38.0,29.98,WNW,294,2.0,6.0,80,0.00,,,0.61,,2013-04-11 02:53:00,
2013-04-10 22:02:00,44.0,38.0,29.98,West,276,2.0,7.0,80,0.00,,,0.61,,2013-04-11 03:02:00,
2013-04-10 22:12:00,44.0,38.0,29.98,West,276,2.0,7.0,80,0.00,,,0.61,,2013-04-11 03:12:00,
2013-04-10 22:22:00,44.0,38.0,29.98,WNW,293,3.0,12.0,80,0.00,,,0.61,,2013-04-11 03:22:00,
2013-04-10 22:33:00,44.0,38.0,29.99,West,281,4.0,13.0,79,0.00,,,0.61,,2013-04-11 03:33:00,
2013-04-10 22:43:00,43.0,37.0,29.98,WNW,290,5.0,12.0,79,0.00,,,0.61,,2013-04-11 03:43:00,
2013-04-10 22:53:00,43.0,37.0,29.98,WNW,290,5.0,12.0,79,0.00,,,0.61,,2013-04-11 03:53:00,
2013-04-10 23:03:00,43.0,37.0,30.00,WNW,299,7.0,13.0,79,0.00,,,0.61,,2013-04-11 04:03:00,
2013-04-10 23:12:00,43.0,37.0,29.98,NW,313,6.0,15.0,79,0.00,,,0.61,,2013-04-11 04:12:00,
2013-04-10 23:22:00,43.0,37.0,29.98,NW,313,6.0,15.0,79,0.00,,,0.61,,2013-04-11 04:22:00,
2013-04-10 23:33:00,42.0,36.0,29.98,NW,314,2.0,9.0,80,0.00,,,0.61,,2013-04-11 04:33:00,
2013-04-10 23:42:00,42.0,36.0,29.98,NW,314,2.0,9.0,80,0.00,,,0.61,,2013-04-11 04:42:00,
2013-04-10 23:52:00,42.0,36.0,30.01,NNW,327,6.0,13.0,79,0.00,,,0.61,,2013-04-11 04:52:00,